Location: Norton
(51.3000°N, 0.8167°E)
Time: 12:36:18
(UTC+00:00)

MOS 1 Rocket - Pass Details

Date: 03 March 2021
Orbit: 615 x 829 km, 97.4° (Epoch: 17 April)

Event Time Altitude Azimuth Distance (km) Brightness Sun altitude
Rises 18:30:59 0° 10° (N) 3,157 6.6 -8.6°
Reaches altitude 10° 18:33:14 10° 7° (N) 2,264 5.9 -8.9°
Maximum altitude 18:38:10 61° 288° (WNW) 876 4.2 -9.7°
Drops below altitude 10° 18:43:20 10° 209° (SSW) 2,370 6.4 -10.5°
Sets 18:45:44 0° 206° (SSW) 3,318 7.1 -10.9°
